EN

Hourly Weather Abertura

Today, 14 May, Friday

Time Temperature Precipitation Wind Pressure Humidity
00:00 +10°C° 0 mm 2 mps 730 mmHg 86%
01:00 +9°C° 0 mm 2 mps 730 mmHg 89%
02:00 +9°C° 0 mm 2 mps 730 mmHg 92%
03:00 +8°C° 0 mm 2 mps 729 mmHg 95%
04:00 +9°C° 0 mm 1 mps 730 mmHg 94%
05:00 +9°C° 0 mm 1 mps 730 mmHg 93%
06:00 +9°C° 0 mm 1 mps 730 mmHg 93%
07:00 +12°C° 0 mm 1 mps 730 mmHg 79%
08:00 +14°C° 0 mm 2 mps 731 mmHg 66%
09:00 +17°C° 0 mm 2 mps 731 mmHg 52%
10:00 +19°C° 0 mm 3 mps 731 mmHg 44%
11:00 +21°C° 0 mm 3 mps 731 mmHg 37%
12:00 +24°C° 0 mm 3 mps 731 mmHg 29%
13:00 +25°C° 0 mm 4 mps 731 mmHg 28%
14:00 +25°C° 0 mm 4 mps 730 mmHg 27%
15:00 +26°C° 0 mm 4 mps 730 mmHg 25%
16:00 +26°C° 0 mm 4 mps 730 mmHg 29%
17:00 +25°C° 0 mm 3 mps 730 mmHg 32%
18:00 +24°C° 0 mm 3 mps 730 mmHg 35%
19:00 +21°C° 0 mm 3 mps 730 mmHg 41%
20:00 +19°C° 0 mm 2 mps 730 mmHg 47%
21:00 +18°C° 0 mm 1 mps 730 mmHg 53%
22:00 +16°C° 0 mm 1 mps 730 mmHg 59%
23:00 +15°C° 0 mm 1 mps 730 mmHg 65%

Tomorrow, 15 May, Saturday

Time Temperature Precipitation Wind Pressure Humidity
00:00 +14°C° 0 mm 1 mps 730 mmHg 71%
01:00 +14°C° 0 mm 1 mps 730 mmHg 75%
02:00 +13°C° 0 mm 1 mps 730 mmHg 78%
03:00 +12°C° 0 mm 1 mps 729 mmHg 81%
04:00 +12°C° 0 mm 1 mps 730 mmHg 81%
05:00 +12°C° 0 mm 1 mps 730 mmHg 81%
06:00 +13°C° 0 mm 1 mps 730 mmHg 81%
07:00 +15°C° 0 mm 1 mps 730 mmHg 70%
08:00 +18°C° 0 mm 2 mps 730 mmHg 59%
09:00 +20°C° 0 mm 2 mps 731 mmHg 48%
10:00 +22°C° 0 mm 3 mps 731 mmHg 44%
11:00 +25°C° 0 mm 3 mps 730 mmHg 40%
12:00 +27°C° 0 mm 4 mps 730 mmHg 36%
13:00 +28°C° 0 mm 4 mps 730 mmHg 35%
14:00 +28°C° 0 mm 4 mps 730 mmHg 34%
15:00 +29°C° 0 mm 5 mps 729 mmHg 33%
16:00 +28°C° 0 mm 4 mps 729 mmHg 36%
17:00 +28°C° 0 mm 4 mps 729 mmHg 40%
18:00 +27°C° 0 mm 4 mps 729 mmHg 43%
19:00 +25°C° 0 mm 4 mps 729 mmHg 51%
20:00 +22°C° 0 mm 3 mps 729 mmHg 59%
21:00 +19°C° 0 mm 2 mps 730 mmHg 67%
22:00 +18°C° 0 mm 2 mps 730 mmHg 71%
23:00 +17°C° 0 mm 2 mps 730 mmHg 76%

Day after tomorrow, 16 May, Sunday

Time Temperature Precipitation Wind Pressure Humidity
00:00 +16°C° 0 mm 1 mps 729 mmHg 81%
01:00 +16°C° 0 mm 1 mps 729 mmHg 83%
02:00 +15°C° 0 mm 1 mps 729 mmHg 85%
03:00 +15°C° 0 mm 1 mps 729 mmHg 87%
04:00 +15°C° 0 mm 1 mps 729 mmHg 86%
05:00 +15°C° 0 mm 1 mps 729 mmHg 85%
06:00 +15°C° 0 mm 1 mps 729 mmHg 84%
07:00 +19°C° 0 mm 1 mps 729 mmHg 72%
08:00 +20°C° 0 mm 2 mps 730 mmHg 61%
09:00 +24°C° 0 mm 3 mps 730 mmHg 49%
10:00 +25°C° 0 mm 3 mps 730 mmHg 45%
11:00 +27°C° 0 mm 4 mps 730 mmHg 42%
12:00 +29°C° 0 mm 4 mps 729 mmHg 38%
13:00 +29°C° 0 mm 5 mps 729 mmHg 37%
14:00 +30°C° 0 mm 5 mps 729 mmHg 36%
15:00 +30°C° 0 mm 5 mps 728 mmHg 35%
16:00 +29°C° 0 mm 5 mps 728 mmHg 39%
17:00 +28°C° 0 mm 5 mps 728 mmHg 42%
18:00 +28°C° 0 mm 5 mps 728 mmHg 45%
19:00 +25°C° 0 mm 4 mps 729 mmHg 53%
20:00 +22°C° 0 mm 3 mps 729 mmHg 61%
21:00 +20°C° 0 mm 3 mps 729 mmHg 69%
22:00 +19°C° 0 mm 2 mps 729 mmHg 74%
23:00 +17°C° 0 mm 2 mps 729 mmHg 79%

17 May, Monday

Time Temperature Precipitation Wind Pressure Humidity
00:00 +16°C° 0 mm 2 mps 729 mmHg 84%
01:00 +16°C° 0 mm 2 mps 729 mmHg 85%
02:00 +15°C° 0 mm 2 mps 729 mmHg 86%
03:00 +15°C° 0 mm 1 mps 729 mmHg 87%
04:00 +15°C° 0 mm 1 mps 729 mmHg 86%
05:00 +15°C° 0 mm 1 mps 729 mmHg 85%
06:00 +15°C° 0 mm 1 mps 730 mmHg 84%
07:00 +17°C° 0 mm 2 mps 730 mmHg 71%
08:00 +20°C° 0 mm 3 mps 730 mmHg 57%
09:00 +22°C° 0 mm 3 mps 731 mmHg 44%
10:00 +25°C° 0 mm 4 mps 731 mmHg 40%
11:00 +26°C° 0 mm 4 mps 731 mmHg 37%
12:00 +27°C° 0 mm 5 mps 731 mmHg 33%
13:00 +28°C° 0 mm 5 mps 731 mmHg 33%
14:00 +28°C° 0 mm 5 mps 731 mmHg 32%
15:00 +28°C° 0 mm 5 mps 731 mmHg 32%
16:00 +27°C° 0 mm 5 mps 731 mmHg 34%
17:00 +27°C° 0 mm 4 mps 731 mmHg 35%
18:00 +27°C° 0 mm 4 mps 730 mmHg 37%
19:00 +23°C° 0 mm 4 mps 731 mmHg 41%
20:00 +21°C° 0 mm 3 mps 731 mmHg 46%
21:00 +19°C° 0 mm 3 mps 732 mmHg 50%
22:00 +18°C° 0 mm 2 mps 732 mmHg 52%
23:00 +16°C° 0 mm 2 mps 732 mmHg 54%

18 May, Tuesday

Time Temperature Precipitation Wind Pressure Humidity
00:00 +15°C° 0 mm 2 mps 732 mmHg 56%
01:00 +15°C° 0 mm 1 mps 732 mmHg 57%
02:00 +14°C° 0 mm 1 mps 732 mmHg 58%
03:00 +13°C° 0 mm 1 mps 732 mmHg 59%
04:00 +13°C° 0 mm 1 mps 732 mmHg 59%
05:00 +13°C° 0 mm 1 mps 732 mmHg 58%
06:00 +13°C° 0 mm 1 mps 733 mmHg 58%
07:00 +16°C° 0 mm 1 mps 733 mmHg 51%
08:00 +19°C° 0 mm 1 mps 733 mmHg 43%
09:00 +22°C° 0 mm 1 mps 734 mmHg 36%
10:00 +24°C° 0 mm 1 mps 733 mmHg 31%
11:00 +26°C° 0 mm 2 mps 733 mmHg 27%
12:00 +28°C° 0 mm 2 mps 733 mmHg 23%
13:00 +29°C° 0 mm 2 mps 733 mmHg 22%
14:00 +30°C° 0 mm 3 mps 733 mmHg 21%
15:00 +30°C° 0 mm 3 mps 732 mmHg 20%
16:00 +30°C° 0 mm 3 mps 732 mmHg 21%
17:00 +29°C° 0 mm 3 mps 732 mmHg 23%
18:00 +28°C° 0 mm 4 mps 732 mmHg 24%
19:00 +26°C° 0 mm 3 mps 733 mmHg 29%
20:00 +23°C° 0 mm 2 mps 733 mmHg 34%
21:00 +20°C° 0 mm 2 mps 733 mmHg 40%
22:00 +20°C° 0 mm 1 mps 733 mmHg 42%
23:00 +19°C° 0 mm 1 mps 733 mmHg 44%

19 May, Wednesday

Time Temperature Precipitation Wind Pressure Humidity
00:00 +19°C° 0 mm 1 mps 733 mmHg 46%
01:00 +18°C° 0 mm 1 mps 733 mmHg 47%
02:00 +18°C° 0 mm 1 mps 732 mmHg 49%
03:00 +16°C° 0 mm 1 mps 732 mmHg 50%
04:00 +16°C° 0 mm 1 mps 733 mmHg 51%
05:00 +16°C° 0 mm 1 mps 733 mmHg 52%
06:00 +16°C° 0 mm 1 mps 733 mmHg 53%
07:00 +20°C° 0 mm 1 mps 733 mmHg 46%
08:00 +23°C° 0 mm 1 mps 734 mmHg 39%
09:00 +26°C° 0 mm 1 mps 734 mmHg 32%
10:00 +28°C° 0 mm 1 mps 734 mmHg 29%
11:00 +30°C° 0 mm 1 mps 733 mmHg 26%
12:00 +32°C° 0 mm 1 mps 733 mmHg 23%
13:00 +33°C° 0 mm 1 mps 733 mmHg 23%
14:00 +33°C° 0 mm 1 mps 732 mmHg 22%
15:00 +35°C° 0 mm 2 mps 732 mmHg 21%
16:00 +34°C° 0 mm 2 mps 732 mmHg 23%
17:00 +34°C° 0 mm 2 mps 731 mmHg 25%
18:00 +32°C° 0 mm 2 mps 731 mmHg 26%
19:00 +29°C° 0 mm 2 mps 731 mmHg 31%
20:00 +27°C° 0 mm 2 mps 732 mmHg 35%
21:00 +24°C° 0 mm 2 mps 732 mmHg 39%
22:00 +24°C° 0 mm 2 mps 732 mmHg 41%
23:00 +23°C° 0 mm 1 mps 732 mmHg 43%
Show more